Whiting Fld NAS, FL

9:16 PM CDT on June 22, 2017 (GMT -0500)
Whiting Field Naval Air Station (North)

Weather History for KNSE - October, 2012

Change the Weather History Date:

Monday, October 22, 2012

  Actual Average Record
Temperature  
Mean Temperature 68 °F -  
Max Temperature 82 °F 76 °F 88 °F (2003)
Min Temperature 53 °F 56 °F 42 °F (2011)
Cooling Degree Days 2    
Growing Degree Days 18 (Base 50)    
Moisture  
Dew Point 55 °F    
Average Humidity 72    
Maximum Humidity 100    
Minimum Humidity 37    
Precipitation  
Precipitation 0.00 in - - ()
Sea Level Pressure  
Sea Level Pressure 30.08 in    
Wind  
Wind Speed 3 mph (East)    
Max Wind Speed 9 mph    
Max Gust Speed -    
Visibility 10 miles    
Events      
Averages and records for this station are not official NWS values.
T = Trace of Precipitation, MM = Missing Value Source: NWS Daily Summary

Daily Weather History Graph

Daily Weather History Graph

Search for Another Location

Airport or City:

Trip Planner

Search our weather history database for the weather conditions in past years. The results will help you decide how hot, cold, wet, or windy it might be!

Date:

Astronomy

Oct. 22, 2012 Rise Set
Actual Time 6:55 AM CDT 6:08 PM CDT
Civil Twilight 6:31 AM CDT 6:33 PM CDT
Nautical Twilight 6:03 AM CDT 7:01 PM CDT
Astronomical Twilight 5:35 AM CDT 7:29 PM CDT
Moon 1:51 PM CDT (10/22) 12:10 AM CDT (10/22)
Length of Visible Light 12h 01m
Length of Day
11h 12m
First Quarter, 56% of the Moon is Illuminated
Oct 22
First Quarter
Oct 29
Full
Nov 6
Last Quarter
Nov 13
New
Nov 20
First Quarter

Hourly Weather History & Observations

Time (CDT) Temp. Heat Index Dew Point Humidity Pressure Visibility Wind Dir Wind Speed Gust Speed Precip Events Conditions
12:56 AM 54.0 °F - 53.1 °F 97% 30.05 in 10.0 mi Calm Calm - N/A   Clear
1:56 AM 57.0 °F - 54.0 °F 89% 30.06 in 10.0 mi NE 3.5 mph - N/A   Clear
2:56 AM 55.9 °F - 52.0 °F 87% 30.05 in 10.0 mi NNE 3.5 mph - N/A   Clear
3:56 AM 54.0 °F - 51.1 °F 90% 30.06 in 10.0 mi Calm Calm - N/A   Clear
4:56 AM 53.1 °F - 51.1 °F 93% 30.06 in 10.0 mi NE 3.5 mph - N/A   Clear
5:56 AM 54.0 °F - 50.0 °F 86% 30.09 in 10.0 mi NNE 4.6 mph - N/A   Clear
6:56 AM 55.0 °F - 50.0 °F 83% 30.10 in 10.0 mi NE 4.6 mph - N/A   Partly Cloudy
7:56 AM 60.1 °F - 53.1 °F 78% 30.11 in 10.0 mi ENE 5.8 mph - N/A   Partly Cloudy
8:56 AM 66.0 °F - 55.0 °F 68% 30.13 in 10.0 mi East 8.1 mph - N/A   Partly Cloudy
9:56 AM 73.0 °F - 57.0 °F 57% 30.13 in 10.0 mi East 8.1 mph - N/A   Partly Cloudy
10:56 AM 77.0 °F - 57.0 °F 50% 30.12 in 10.0 mi ESE 8.1 mph - N/A   Partly Cloudy
11:56 AM 79.0 °F - 53.1 °F 40% 30.12 in 10.0 mi East 8.1 mph - N/A   Partly Cloudy
12:56 PM 81.0 °F 80.8 °F 55.9 °F 42% 30.09 in 10.0 mi East 9.2 mph - N/A   Partly Cloudy
1:56 PM 82.0 °F 81.3 °F 54.0 °F 38% 30.06 in 10.0 mi ESE 6.9 mph - N/A   Clear
2:56 PM 82.9 °F 82.0 °F 55.0 °F 38% 30.04 in 10.0 mi SE 5.8 mph - N/A   Clear
3:56 PM 82.9 °F 81.9 °F 54.0 °F 37% 30.04 in 10.0 mi ESE 4.6 mph - N/A   Clear
4:56 PM 82.0 °F 81.3 °F 54.0 °F 38% 30.04 in 10.0 mi East 4.6 mph - N/A   Clear
5:56 PM 73.9 °F - 60.1 °F 62% 30.05 in 10.0 mi SW 6.9 mph - N/A   Clear
6:56 PM 68.0 °F - 59.0 °F 73% 30.06 in 10.0 mi Calm Calm - N/A   Clear
7:56 PM 60.1 °F - 57.9 °F 93% 30.07 in 10.0 mi Calm Calm - N/A   Clear
8:56 PM 59.0 °F - 57.0 °F 93% 30.09 in 10.0 mi Calm Calm - N/A   Clear
9:56 PM 59.0 °F - 57.0 °F 93% 30.09 in 10.0 mi Calm Calm - N/A   Clear
10:56 PM 57.0 °F - 55.9 °F 96% 30.08 in 9.0 mi Calm Calm - N/A   Clear
11:56 PM 55.9 °F - 55.9 °F 100% 30.07 in 9.0 mi Calm Calm - N/A   Clear